,,Stat6,,Stat2,,Stat8,,Stat9,,Stat10,,Wind1,,Wind1,
time,status,PA1M_AVG,status,PR1M_SUM,status,RH1M_AVG,status,SR1M_AVG,status,TA1M_AVG,status,W1dAve1m,status,W1sAve1m,
2007-11-09, 00:00:00,VALID,916.7,VALID,0,VALID,100,VALID,0,VALID,19.4717,VALID,78,VALID,1.30527,
2007-11-09, 00:01:00,VALID,916.676,VALID,0,VALID,100,VALID,-0.0169808,VALID,19.4617,VALID,56,VALID,0.927455,
2007-11-09, 00:02:00,VALID,916.652,VALID,0,VALID,100,VALID,-0.0509425,VALID,19.4652,VALID,69,VALID,0.891927,
2007-11-09, 00:03:00,VALID,916.649,VALID,0,VALID,100,VALID,-0.0339617,VALID,19.4557,VALID,79,VALID,0.548828,
2007-11-09, 00:04:00,VALID,916.626,VALID,0,VALID,100,VALID,-0.0339617,VALID,19.4522,VALID,77,VALID,0.00576637,
2007-11-09, 00:05:00,VALID,916.603,VALID,0,VALID,100,VALID,-0.0169808,VALID,19.4457,VALID,72,VALID,0.607195,
2007-11-09, 00:06:00,VALID,916.595,VALID,0,VALID,100,VALID,-0.0169808,VALID,19.4358,VALID,89,VALID,0.105097,
2007-11-09, 00:07:00,VALID,916.578,VALID,0,VALID,100,VALID,-0.0679233,VALID,19.4457,VALID,90,VALID,0.274117,
2007-11-09, 00:08:00,VALID,916.549,VALID,0,VALID,100,VALID,-0.0849042,VALID,19.4557,VALID,87,VALID,0.243096,
2007-11-09, 00:09:00,VALID,916.532,VALID,0,VALID,100,VALID,-0.0339617,VALID,19.4487,VALID,81,VALID,0.53853,
2007-11-09, 00:10:00,VALID,916.529,VALID,0,VALID,100,VALID,-0.0509425,VALID,19.4457,VALID,52,VALID,0.199319,
2007-11-09, 00:11:00,VALID,916.493,VALID,0,VALID,100,VALID,-0.0339617,VALID,19.4557,VALID,73,VALID,1.39807,
2007-11-09, 00:12:00,VALID,916.494,VALID,0,VALID,100,VALID,-0.0169808,VALID,19.4585,VALID,340,VALID,0.782965,
2007-11-09, 00:13:00,VALID,916.494,VALID,0,VALID,100,VALID,-0.0169808,VALID,19.4485,VALID,358,VALID,0.476763,
2007-11-09, 00:14:00,VALID,916.472,VALID,0,VALID,100,VALID,0,VALID,19.445,VALID,63,VALID,0.264695,
2007-11-09, 00:15:00,VALID,916.464,VALID,0,VALID,100,VALID,0,VALID,19.4191,VALID,87,VALID,0.679506,
2007-11-09, 00:16:00,VALID,916.433,VALID,0,VALID,100,VALID,0.0169808,VALID,19.4128,VALID,84,VALID,0.510121,
2007-11-09, 00:17:00,VALID,916.427,VALID,0,VALID,100,VALID,-0.0169808,VALID,19.3901,VALID,71,VALID,0.821801,
2007-11-09, 00:18:00,VALID,916.411,VALID,0,VALID,100,VALID,0,VALID,19.3966,VALID,65,VALID,0.478423,
2007-11-09, 00:19:00,VALID,916.387,VALID,0,VALID,100,VALID,0.0169808,VALID,19.3901,VALID,102,VALID,0.807706,
2007-11-09, 00:20:00,VALID,916.389,VALID,0,VALID,100,VALID,0,VALID,19.3799,VALID,205,VALID,0.441679,
2007-11-09, 00:21:00,VALID,916.367,VALID,0,VALID,100,VALID,0,VALID,19.3899,VALID,220,VALID,0.189453,
2007-11-09, 00:22:00,VALID,916.357,VALID,0,VALID,100,VALID,0,VALID,19.4031,VALID,67,VALID,0.838742,
2007-11-09, 00:23:00,VALID,916.353,VALID,0,VALID,100,VALID,-0.0169808,VALID,19.4126,VALID,68,VALID,0.0266335,
2007-11-09, 00:24:00,VALID,916.311,VALID,0,VALID,100,VALID,-0.0169808,VALID,19.4098,VALID,92,VALID,1.34801,
2007-11-09, 00:25:00,VALID,916.282,VALID,0,VALID,100,VALID,-0.0339617,VALID,19.3741,VALID,56,VALID,2.25391,
2007-11-09, 00:26:00,VALID,916.312,VALID,0,VALID,100,VALID,-0.0849042,VALID,19.3616,VALID,73,VALID,1.86137,
2007-11-09, 00:27:00,VALID,916.269,VALID,0,VALID,100,VALID,0.0169808,VALID,19.338,VALID,70,VALID,2.57708,
2007-11-09, 00:28:00,VALID,916.257,VALID,0,VALID,100,VALID,0.0169808,VALID,19.3122,VALID,67,VALID,1.9708,
2007-11-09, 00:29:00,VALID,916.25,VALID,0,VALID,100,VALID,0,VALID,19.3088,VALID,74,VALID,1.91871,
2007-11-09, 00:30:00,VALID,916.24,VALID,0,VALID,100,VALID,0.0169808,VALID,19.303,VALID,68,VALID,1.89463,
2007-11-09, 00:31:00,VALID,916.205,VALID,0,VALID,100,VALID,0,VALID,19.299,VALID,56,VALID,1.68377,
2007-11-09, 00:32:00,VALID,916.174,VALID,0,VALID,100,VALID,0.0169808,VALID,19.3032,VALID,73,VALID,1.52754,
2007-11-09, 00:33:00,VALID,916.169,VALID,0,VALID,100,VALID,-0.0169808,VALID,19.287,VALID,73,VALID,1.14621,
2007-11-09, 00:34:00,VALID,916.138,VALID,0,VALID,100,VALID,-0.0849042,VALID,19.2882,VALID,73,VALID,1.53196,
2007-11-09, 00:35:00,VALID,916.137,VALID,0,VALID,100,VALID,-0.101885,VALID,19.2616,VALID,82,VALID,1.08031,
2007-11-09, 00:36:00,VALID,916.142,VALID,0,VALID,100,VALID,-0.101885,VALID,19.2516,VALID,52,VALID,1.11235,
2007-11-09, 00:37:00,VALID,916.098,VALID,0,VALID,100,VALID,-0.101885,VALID,19.2613,VALID,78,VALID,1.82848,
2007-11-09, 00:38:00,VALID,916.1,VALID,0,VALID,100,VALID,-0.0849042,VALID,19.268,VALID,73,VALID,2.12837,
2007-11-09, 00:39:00,VALID,916.105,VALID,0,VALID,100,VALID,-0.101885,VALID,19.278,VALID,83,VALID,1.35938,
2007-11-09, 00:40:00,VALID,916.104,VALID,0,VALID,100,VALID,-0.135847,VALID,19.2915,VALID,78,VALID,0.909856,
2007-11-09, 00:41:00,VALID,916.101,VALID,0,VALID,100,VALID,-0.101885,VALID,19.2808,VALID,73,VALID,0.837081,
2007-11-09, 00:42:00,VALID,916.088,VALID,0,VALID,100,VALID,-0.0169808,VALID,19.2803,VALID,64,VALID,0.732244,
2007-11-09, 00:43:00,VALID,916.089,VALID,0,VALID,100,VALID,0,VALID,19.2801,VALID,70,VALID,0.838542,
2007-11-09, 00:44:00,VALID,916.071,VALID,0,VALID,100,VALID,0,VALID,19.2633,VALID,87,VALID,1.03391,
2007-11-09, 00:45:00,VALID,916.066,VALID,0,VALID,100,VALID,0,VALID,19.2671,VALID,74,VALID,1.04277,
2007-11-09, 00:46:00,VALID,916.046,VALID,0,VALID,100,VALID,-0.0169808,VALID,19.2606,VALID,97,VALID,0.68941,
2007-11-09, 00:47:00,VALID,916.034,VALID,0,VALID,100,VALID,0,VALID,19.2543,VALID,71,VALID,1.3207,
2007-11-09, 00:48:00,VALID,916.036,VALID,0,VALID,100,VALID,0,VALID,19.2474,VALID,2,VALID,0.868304,
2007-11-09, 00:49:00,VALID,916.038,VALID,0,VALID,100,VALID,0,VALID,19.2374,VALID,73,VALID,1.09896,
2007-11-09, 00:50:00,VALID,916.016,VALID,0,VALID,100,VALID,-0.0169808,VALID,19.2504,VALID,68,VALID,1.01744,
2007-11-09, 00:51:00,VALID,915.992,VALID,0,VALID,100,VALID,-0.0169808,VALID,19.2404,VALID,76,VALID,1.391,
2007-11-09, 00:52:00,VALID,915.987,VALID,0,VALID,100,VALID,-0.0339617,VALID,19.2179,VALID,55,VALID,1.19207,
2007-11-09, 00:53:00,VALID,915.972,VALID,0,VALID,100,VALID,0,VALID,19.1982,VALID,46,VALID,1.1369,
2007-11-09, 00:54:00,VALID,915.95,VALID,0,VALID,100,VALID,0,VALID,19.1955,VALID,89,VALID,1.23147,
2007-11-09, 00:55:00,VALID,915.958,VALID,0,VALID,100,VALID,-0.0339617,VALID,19.1989,VALID,57,VALID,0.574886,
2007-11-09, 00:56:00,VALID,915.924,VALID,0,VALID,100,VALID,0,VALID,19.2054,VALID,65,VALID,0.266352,
2007-11-09, 00:57:00,VALID,915.917,VALID,0,VALID,100,VALID,0,VALID,19.2114,VALID,82,VALID,0.947311,
2007-11-09, 00:58:00,VALID,915.916,VALID,0,VALID,100,VALID,0,VALID,19.2117,VALID,74,VALID,0.701705,
2007-11-09, 00:59:00,VALID,915.907,VALID,0,VALID,100,VALID,0.0169808,VALID,19.208,VALID,78,VALID,0.602289,
2007-11-09, 01:00:00,VALID,915.911,VALID,0,VALID,100,VALID,0.0169808,VALID,19.2017,VALID,71,VALID,0.333059,
2007-11-09, 01:01:00,VALID,915.897,VALID,0,VALID,100,VALID,-0.0169808,VALID,19.2082,VALID,90,VALID,0.610937,
2007-11-09, 01:02:00,VALID,915.913,VALID,0,VALID,100,VALID,0,VALID,19.205,VALID,82,VALID,0.046689,
2007-11-09, 01:03:00,VALID,915.915,VALID,0,VALID,100,VALID,0,VALID,19.2149,VALID,83,VALID,0.406977,
2007-11-09, 01:04:00,VALID,915.908,VALID,0,VALID,100,VALID,-0.0169808,VALID,19.2119,VALID,73,VALID,1.11979,
2007-11-09, 01:05:00,VALID,915.922,VALID,0,VALID,100,VALID,0.0339617,VALID,19.2017,VALID,67,VALID,1.31094,
2007-11-09, 01:06:00,VALID,915.904,VALID,0,VALID,100,VALID,0.0169808,VALID,19.2015,VALID,72,VALID,0.979936,
2007-11-09, 01:07:00,VALID,915.885,VALID,0,VALID,100,VALID,0.0169808,VALID,19.1985,VALID,68,VALID,1.51135,
2007-11-09, 01:08:00,VALID,915.886,VALID,0,VALID,100,VALID,-0.0169808,VALID,19.1885,VALID,64,VALID,1.2115,
2007-11-09, 01:09:00,VALID,915.885,VALID,0,VALID,100,VALID,0.0169808,VALID,19.1723,VALID,56,VALID,1.28379,
2007-11-09, 01:10:00,VALID,915.884,VALID,0,VALID,100,VALID,0,VALID,19.1788,VALID,59,VALID,0.844283,
2007-11-09, 01:11:00,VALID,915.874,VALID,0,VALID,100,VALID,0.0339617,VALID,19.1952,VALID,60,VALID,0.865327,
2007-11-09, 01:12:00,VALID,915.878,VALID,0,VALID,100,VALID,-0.0169808,VALID,19.2147,VALID,70,VALID,1.75391,
2007-11-09, 01:13:00,VALID,915.856,VALID,0,VALID,100,VALID,0,VALID,19.1985,VALID,62,VALID,1.54874,
2007-11-09, 01:14:00,VALID,915.857,VALID,0,VALID,100,VALID,-0.0339617,VALID,19.1887,VALID,61,VALID,1.3879,
2007-11-09, 01:15:00,VALID,915.835,VALID,0,VALID,100,VALID,-0.0339617,VALID,19.1822,VALID,57,VALID,1.83994,
2007-11-09, 01:16:00,VALID,915.842,VALID,0,VALID,100,VALID,-0.0169808,VALID,19.1695,VALID,47,VALID,1.66562,
2007-11-09, 01:17:00,VALID,915.848,VALID,0,VALID,100,VALID,0,VALID,19.166,VALID,69,VALID,1.30137,
2007-11-09, 01:18:00,VALID,915.827,VALID,0,VALID,100,VALID,0,VALID,19.1788,VALID,64,VALID,1.32227,
2007-11-09, 01:19:00,VALID,915.833,VALID,0,VALID,100,VALID,-0.0339617,VALID,19.1758,VALID,48,VALID,1.06995,
2007-11-09, 01:20:00,VALID,915.812,VALID,0,VALID,100,VALID,0,VALID,19.1623,VALID,48,VALID,1.42411,
2007-11-09, 01:21:00,VALID,915.82,VALID,0,VALID,100,VALID,-0.0339617,VALID,19.1695,VALID,57,VALID,0.668899,
2007-11-09, 01:22:00,VALID,915.805,VALID,0,VALID,100,VALID,-0.0169808,VALID,19.1788,VALID,61,VALID,0.422585,
2007-11-09, 01:23:00,VALID,915.808,VALID,0,VALID,100,VALID,0,VALID,19.1885,VALID,70,VALID,0.738086,
2007-11-09, 01:24:00,VALID,915.793,VALID,0,VALID,100,VALID,0,VALID,19.1887,VALID,62,VALID,0.699826,
2007-11-09, 01:25:00,VALID,915.781,VALID,0,VALID,100,VALID,-0.0339617,VALID,19.1955,VALID,68,VALID,0.190341,
2007-11-09, 01:26:00,VALID,915.771,VALID,0,VALID,100,VALID,0,VALID,19.1952,VALID,68,VALID,0.236133,
2007-11-09, 01:27:00,VALID,915.766,VALID,0,VALID,100,VALID,0.0169808,VALID,19.185,VALID,68,VALID,0.0939317,
2007-11-09, 01:28:00,VALID,915.761,VALID,0,VALID,100,VALID,-0.0169808,VALID,19.1917,VALID,68,VALID,0.0106997,
2007-11-09, 01:29:00,VALID,915.755,VALID,0,VALID,100,VALID,0,VALID,19.1952,VALID,68,VALID,0,
2007-11-09, 01:30:00,VALID,915.744,VALID,0,VALID,100,VALID,-0.0169808,VALID,19.195,VALID,68,VALID,0,
2007-11-09, 01:31:00,VALID,915.736,VALID,0,VALID,100,VALID,0,VALID,19.1982,VALID,69,VALID,0.674543,
2007-11-09, 01:32:00,VALID,915.731,VALID,0,VALID,100,VALID,0,VALID,19.2015,VALID,72,VALID,0.135298,
2007-11-09, 01:33:00,VALID,915.743,VALID,0,VALID,100,VALID,0.0169808,VALID,19.2075,VALID,72,VALID,0.148438,
2007-11-09, 01:34:00,VALID,915.745,VALID,0,VALID,100,VALID,-0.0339617,VALID,19.2177,VALID,72,VALID,0,
2007-11-09, 01:35:00,VALID,915.742,VALID,0,VALID,100,VALID,-0.0339617,VALID,19.198,VALID,72,VALID,0,
2007-11-09, 01:36:00,VALID,915.757,VALID,0,VALID,100,VALID,-0.0169808,VALID,19.1882,VALID,72,VALID,0,
2007-11-09, 01:37:00,VALID,915.755,VALID,0,VALID,100,VALID,0.0169808,VALID,19.1912,VALID,72,VALID,0,
2007-11-09, 01:38:00,VALID,915.752,VALID,0,VALID,100,VALID,-0.0339617,VALID,19.2142,VALID,72,VALID,0,
2007-11-09, 01:39:00,VALID,915.74,VALID,0,VALID,100,VALID,-0.0339617,VALID,19.2272,VALID,72,VALID,0,
2007-11-09, 01:40:00,VALID,915.709,VALID,0,VALID,100,VALID,0,VALID,19.2501,VALID,72,VALID,0.368963,
2007-11-09, 01:41:00,VALID,915.682,VALID,0,VALID,100,VALID,0,VALID,19.214,VALID,71,VALID,0.629207,
2007-11-09, 01:42:00,VALID,915.675,VALID,0,VALID,100,VALID,-0.0339617,VALID,19.2054,VALID,46,VALID,0.414418,
2007-11-09, 01:43:00,VALID,915.661,VALID,0,VALID,100,VALID,-0.101885,VALID,19.1964,VALID,28,VALID,0,
2007-11-09, 01:44:00,VALID,915.623,VALID,0,VALID,100,VALID,-0.101885,VALID,19.1997,VALID,55,VALID,0.67359,
2007-11-09, 01:45:00,VALID,915.59,VALID,0,VALID,100,VALID,-0.101885,VALID,19.1762,VALID,61,VALID,0.771019,
2007-11-09, 01:46:00,VALID,915.577,VALID,0,VALID,100,VALID,-0.101885,VALID,19.1899,VALID,33,VALID,0.331771,
2007-11-09, 01:47:00,VALID,915.568,VALID,0,VALID,100,VALID,-0.0849042,VALID,19.1795,VALID,32,VALID,0,
2007-11-09, 01:48:00,VALID,915.57,VALID,0,VALID,100,VALID,-0.0849042,VALID,19.1929,VALID,333,VALID,0.344658,
2007-11-09, 01:49:00,VALID,915.551,VALID,0,VALID,100,VALID,-0.118866,VALID,19.1897,VALID,296,VALID,0.0431548,
2007-11-09, 01:50:00,VALID,915.569,VALID,0,VALID,100,VALID,-0.0849042,VALID,19.1897,VALID,296,VALID,0.129906,
2007-11-09, 01:51:00,VALID,915.531,VALID,0,VALID,100,VALID,-0.101885,VALID,19.1862,VALID,35,VALID,1.30362,
2007-11-09, 01:52:00,VALID,915.547,VALID,0,VALID,100,VALID,-0.0509425,VALID,19.2059,VALID,43,VALID,0.617188,
2007-11-09, 01:53:00,VALID,915.524,VALID,0,VALID,100,VALID,-0.0849042,VALID,19.2094,VALID,44,VALID,0.0919331,
2007-11-09, 01:54:00,VALID,915.515,VALID,0,VALID,100,VALID,-0.0679233,VALID,19.2062,VALID,76,VALID,0.612645,
2007-11-09, 01:55:00,VALID,915.531,VALID,0,VALID,100,VALID,-0.0849042,VALID,19.2059,VALID,322,VALID,0.386418,
2007-11-09, 01:56:00,VALID,915.539,VALID,0,VALID,100,VALID,-0.0849042,VALID,19.1962,VALID,262,VALID,0.521577,
2007-11-09, 01:57:00,VALID,915.548,VALID,0,VALID,100,VALID,-0.0509425,VALID,19.2022,VALID,281,VALID,0.437901,
2007-11-09, 01:58:00,VALID,915.549,VALID,0,VALID,100,VALID,0,VALID,19.2114,VALID,138,VALID,0.17569,
2007-11-09, 01:59:01,VALID,915.545,VALID,0,VALID,100,VALID,0,VALID,19.2144,VALID,350,VALID,0.775254,
2007-11-09, 02:00:00,VALID,915.551,VALID,0,VALID,100,VALID,0,VALID,19.2047,VALID,315,VALID,0.831101,
2007-11-09, 02:01:00,VALID,915.53,VALID,0,VALID,100,VALID,0.0169808,VALID,19.1975,VALID,325,VALID,0.259411,
2007-11-09, 02:02:00,VALID,915.511,VALID,0,VALID,100,VALID,0.0339617,VALID,19.201,VALID,288,VALID,0,
2007-11-09, 02:03:01,VALID,915.482,VALID,0,VALID,100,VALID,0.0339617,VALID,19.204,VALID,239,VALID,0.252486,
2007-11-09, 02:04:00,VALID,915.457,VALID,0,VALID,100,VALID,0.0339617,VALID,19.2077,VALID,119,VALID,0.196243,
2007-11-09, 02:05:01,VALID,915.443,VALID,0,VALID,100,VALID,0.0169808,VALID,19.2174,VALID,118,VALID,0,
2007-11-09, 02:06:00,VALID,915.414,VALID,0,VALID,100,VALID,-0.0169808,VALID,19.2174,VALID,118,VALID,0.113009,
2007-11-09, 02:07:01,VALID,915.387,VALID,0,VALID,100,VALID,0,VALID,19.2277,VALID,82,VALID,0.132643,
2007-11-09, 02:08:00,VALID,915.357,VALID,0,VALID,100,VALID,0.0169808,VALID,19.2042,VALID,55,VALID,0.928163,
2007-11-09, 02:09:00,VALID,915.333,VALID,0,VALID,100,VALID,-0.0169808,VALID,19.2112,VALID,352,VALID,1.07254,
2007-11-09, 02:10:00,VALID,915.334,VALID,0,VALID,100,VALID,-0.0169808,VALID,19.2077,VALID,317,VALID,0.545346,
2007-11-09, 02:11:01,VALID,915.318,VALID,0,VALID,100,VALID,0.0169808,VALID,19.195,VALID,72,VALID,0.966025,
2007-11-09, 02:12:00,VALID,915.332,VALID,0,VALID,100,VALID,0,VALID,19.2144,VALID,79,VALID,0.370206,
2007-11-09, 02:13:01,VALID,915.329,VALID,0,VALID,100,VALID,-0.0169808,VALID,19.2242,VALID,62,VALID,0.44798,
2007-11-09, 02:14:00,VALID,915.307,VALID,0,VALID,100,VALID,-0.0169808,VALID,19.2374,VALID,70,VALID,0.942454,
2007-11-09, 02:15:01,VALID,915.304,VALID,0,VALID,100,VALID,-0.0169808,VALID,19.2307,VALID,60,VALID,0.161337,
2007-11-09, 02:16:01,VALID,915.285,VALID,0,VALID,100,VALID,-0.0339617,VALID,19.2307,VALID,74,VALID,0.566592,
2007-11-09, 02:17:01,VALID,915.254,VALID,0,VALID,100,VALID,-0.0339617,VALID,19.2307,VALID,53,VALID,1.02379,
2007-11-09, 02:18:01,VALID,915.27,VALID,0,VALID,100,VALID,0,VALID,19.2371,VALID,60,VALID,0.556386,
2007-11-09, 02:19:00,VALID,915.228,VALID,0,VALID,100,VALID,-0.0169808,VALID,19.2341,VALID,70,VALID,0.864901,
2007-11-09, 02:20:00,VALID,915.228,VALID,0,VALID,100,VALID,0,VALID,19.2277,VALID,342,VALID,0.273251,
2007-11-09, 02:21:00,VALID,915.199,VALID,0,VALID,100,VALID,-0.0339617,VALID,19.211,VALID,20,VALID,0.704215,
2007-11-09, 02:22:00,VALID,915.186,VALID,0,VALID,100,VALID,-0.0509425,VALID,19.2217,VALID,338,VALID,1.51925,
2007-11-09, 02:23:00,VALID,915.214,VALID,0,VALID,100,VALID,0,VALID,19.1982,VALID,274,VALID,0.264535,
2007-11-09, 02:24:00,VALID,915.213,VALID,0,VALID,100,VALID,-0.0339617,VALID,19.1855,VALID,264,VALID,0,
2007-11-09, 02:25:01,VALID,915.194,VALID,0,VALID,100,VALID,0,VALID,19.1952,VALID,168,VALID,0.141827,
2007-11-09, 02:26:00,VALID,915.207,VALID,0,VALID,100,VALID,0,VALID,19.2047,VALID,93,VALID,1.07069,
2007-11-09, 02:27:00,VALID,915.188,VALID,0,VALID,100,VALID,-0.0169808,VALID,19.1985,VALID,154,VALID,0.798692,
2007-11-09, 02:28:00,VALID,915.198,VALID,0,VALID,100,VALID,0,VALID,19.1785,VALID,151,VALID,0.17702,
2007-11-09, 02:29:01,VALID,915.198,VALID,0,VALID,100,VALID,0,VALID,19.1922,VALID,179,VALID,0.308503,
2007-11-09, 02:30:00,VALID,915.182,VALID,0,VALID,100,VALID,0,VALID,19.208,VALID,148,VALID,0.40625,
2007-11-09, 02:31:01,VALID,915.203,VALID,0,VALID,100,VALID,-0.0339617,VALID,19.2114,VALID,210,VALID,0.461328,
2007-11-09, 02:32:01,VALID,915.175,VALID,0.2,VALID,100,VALID,0,VALID,19.182,VALID,203,VALID,0.130716,
2007-11-09, 02:33:01,VALID,915.175,VALID,0,VALID,100,VALID,-0.0169808,VALID,19.1586,VALID,237,VALID,0.572359,
2007-11-09, 02:34:00,VALID,915.177,VALID,0,VALID,100,VALID,-0.0509425,VALID,19.1595,VALID,323,VALID,0.946265,
2007-11-09, 02:35:00,VALID,915.176,VALID,0,VALID,100,VALID,-0.0169808,VALID,19.1593,VALID,64,VALID,0.439215,
2007-11-09, 02:36:00,VALID,915.176,VALID,0,VALID,100,VALID,-0.0339617,VALID,19.179,VALID,94,VALID,0.851563,
2007-11-09, 02:37:00,VALID,915.182,VALID,0,VALID,100,VALID,-0.0169808,VALID,19.1822,VALID,38,VALID,0.214571,
2007-11-09, 02:38:00,VALID,915.162,VALID,0,VALID,100,VALID,-0.0169808,VALID,19.192,VALID,214,VALID,0.370075,
2007-11-09, 02:39:00,VALID,915.165,VALID,0,VALID,100,VALID,-0.0169808,VALID,19.1723,VALID,296,VALID,0.695685,
2007-11-09, 02:40:01,VALID,915.147,VALID,0,VALID,100,VALID,-0.0169808,VALID,19.173,VALID,322,VALID,0.90625,
2007-11-09, 02:41:00,VALID,915.143,VALID,0,VALID,100,VALID,0.0169808,VALID,19.1565,VALID,56,VALID,0.197461,
2007-11-09, 02:42:00,VALID,915.136,VALID,0,VALID,100,VALID,-0.101885,VALID,19.157,VALID,103,VALID,0.0568677,
2007-11-09, 02:43:00,VALID,915.139,VALID,0,VALID,100,VALID,-0.135847,VALID,19.1902,VALID,103,VALID,0,
2007-11-09, 02:44:00,VALID,915.118,VALID,0,VALID,100,VALID,-0.101885,VALID,19.1932,VALID,109,VALID,0.396176,
2007-11-09, 02:45:00,VALID,915.108,VALID,0,VALID,100,VALID,-0.135847,VALID,19.1899,VALID,316,VALID,1.05842,
2007-11-09, 02:46:00,VALID,915.119,VALID,0,VALID,100,VALID,-0.118866,VALID,19.1835,VALID,34,VALID,0.754954,
2007-11-09, 02:47:01,VALID,915.121,VALID,0,VALID,100,VALID,-0.101885,VALID,19.2094,VALID,66,VALID,0.403161,
2007-11-09, 02:48:01,VALID,915.14,VALID,0,VALID,100,VALID,-0.118866,VALID,19.1994,VALID,100,VALID,0.604802,
2007-11-09, 02:49:01,VALID,915.14,VALID,0,VALID,100,VALID,-0.135847,VALID,19.1837,VALID,236,VALID,0.539993,
2007-11-09, 02:50:01,VALID,915.107,VALID,0,VALID,100,VALID,-0.118866,VALID,19.164,VALID,182,VALID,0.543968,
2007-11-09, 02:51:00,VALID,915.136,VALID,0,VALID,100,VALID,-0.152827,VALID,19.1543,VALID,132,VALID,1.20461,
2007-11-09, 02:52:00,VALID,915.13,VALID,0,VALID,100,VALID,-0.101885,VALID,19.1637,VALID,89,VALID,1.08097,
2007-11-09, 02:53:00,VALID,915.107,VALID,0,VALID,100,VALID,-0.118866,VALID,19.1675,VALID,77,VALID,1.81492,
2007-11-09, 02:54:00,VALID,915.122,VALID,0,VALID,100,VALID,-0.0679233,VALID,19.161,VALID,107,VALID,1.01254,
2007-11-09, 02:55:01,VALID,915.116,VALID,0,VALID,100,VALID,-0.101885,VALID,19.1408,VALID,111,VALID,0.561928,
2007-11-09, 02:56:01,VALID,915.11,VALID,0,VALID,100,VALID,-0.101885,VALID,19.1543,VALID,85,VALID,1.43438,
2007-11-09, 02:57:01,VALID,915.103,VALID,0,VALID,100,VALID,-0.0339617,VALID,19.147,VALID,332,VALID,1.09661,
2007-11-09, 02:58:01,VALID,915.098,VALID,0,VALID,100,VALID,-0.0339617,VALID,19.1299,VALID,60,VALID,1.34884,
2007-11-09, 02:59:01,VALID,915.088,VALID,0,VALID,100,VALID,0.0169808,VALID,19.1466,VALID,69,VALID,1.56734,
2007-11-09, 03:00:01,VALID,915.108,VALID,0,VALID,100,VALID,-0.0169808,VALID,19.1493,VALID,321,VALID,0.335764,
2007-11-09, 03:01:00,VALID,915.09,VALID,0,VALID,100,VALID,0,VALID,19.1366,VALID,317,VALID,1.00391,
2007-11-09, 03:02:00,VALID,915.085,VALID,0,VALID,100,VALID,-0.0339617,VALID,19.1301,VALID,85,VALID,0.992188,
2007-11-09, 03:03:00,VALID,915.075,VALID,0,VALID,100,VALID,0,VALID,19.1498,VALID,340,VALID,0.296512,
2007-11-09, 03:04:00,VALID,915.042,VALID,0,VALID,100,VALID,0,VALID,19.1561,VALID,71,VALID,1.06359,
2007-11-09, 03:05:00,VALID,915.055,VALID,0,VALID,100,VALID,0,VALID,19.1723,VALID,359,VALID,0.722561,
2007-11-09, 03:06:00,VALID,915.056,VALID,0,VALID,100,VALID,-0.0339617,VALID,19.1723,VALID,320,VALID,0.483613,
2007-11-09, 03:07:00,VALID,915.055,VALID,0,VALID,100,VALID,0,VALID,19.1621,VALID,14,VALID,0.495313,
2007-11-09, 03:08:00,VALID,915.039,VALID,0,VALID,100,VALID,0,VALID,19.1591,VALID,83,VALID,0.053234,
2007-11-09, 03:09:00,VALID,915.009,VALID,0,VALID,100,VALID,0,VALID,19.1398,VALID,286,VALID,0.741071,
2007-11-09, 03:10:00,VALID,915.002,VALID,0,VALID,100,VALID,-0.0169808,VALID,19.1401,VALID,62,VALID,0.720881,
2007-11-09, 03:11:00,VALID,915.006,VALID,0,VALID,100,VALID,-0.0679233,VALID,19.15,VALID,90,VALID,0.0678354,
2007-11-09, 03:12:00,VALID,914.976,VALID,0,VALID,100,VALID,-0.0679233,VALID,19.1568,VALID,141,VALID,0.584263,
2007-11-09, 03:13:00,VALID,914.967,VALID,0,VALID,100,VALID,-0.0509425,VALID,19.15,VALID,92,VALID,1.00073,
2007-11-09, 03:14:00,VALID,914.956,VALID,0,VALID,100,VALID,-0.0339617,VALID,19.176,VALID,93,VALID,0.32066,
2007-11-09, 03:15:00,VALID,914.94,VALID,0,VALID,100,VALID,-0.0169808,VALID,19.1927,VALID,58,VALID,0.744186,
2007-11-09, 03:16:00,VALID,914.919,VALID,0,VALID,100,VALID,0,VALID,19.2087,VALID,328,VALID,0.037064,
2007-11-09, 03:17:00,VALID,914.913,VALID,0,VALID,100,VALID,-0.0339617,VALID,19.2015,VALID,356,VALID,0.187686,
2007-11-09, 03:18:00,VALID,914.904,VALID,0,VALID,100,VALID,0,VALID,19.1982,VALID,71,VALID,0.587754,
2007-11-09, 03:19:00,VALID,914.878,VALID,0,VALID,100,VALID,0,VALID,19.2212,VALID,73,VALID,0.574219,
2007-11-09, 03:20:00,VALID,914.862,VALID,0,VALID,100,VALID,0,VALID,19.208,VALID,68,VALID,0.632068,
2007-11-09, 03:21:00,VALID,914.835,VALID,0,VALID,100,VALID,0,VALID,19.2114,VALID,72,VALID,1.11701,
2007-11-09, 03:22:00,VALID,914.811,VALID,0,VALID,100,VALID,0,VALID,19.1985,VALID,77,VALID,1.29379,
2007-11-09, 03:23:00,VALID,914.8,VALID,0,VALID,100,VALID,0,VALID,19.1952,VALID,74,VALID,1.59126,
2007-11-09, 03:24:00,VALID,914.797,VALID,0,VALID,100,VALID,0,VALID,19.1917,VALID,74,VALID,1.8155,
2007-11-09, 03:25:00,VALID,914.772,VALID,0,VALID,100,VALID,-0.0169808,VALID,19.1855,VALID,74,VALID,1.48935,
2007-11-09, 03:26:00,VALID,914.757,VALID,0,VALID,100,VALID,0.0169808,VALID,19.1723,VALID,53,VALID,1.77559,
2007-11-09, 03:27:00,VALID,914.775,VALID,0,VALID,100,VALID,-0.0339617,VALID,19.1825,VALID,36,VALID,0.338415,
2007-11-09, 03:28:00,VALID,914.775,VALID,0,VALID,100,VALID,0,VALID,19.1788,VALID,34,VALID,0.365625,
2007-11-09, 03:29:00,VALID,914.761,VALID,0,VALID,100,VALID,-0.0169808,VALID,19.1723,VALID,80,VALID,0.803089,
2007-11-09, 03:30:00,VALID,914.761,VALID,0,VALID,100,VALID,-0.0339617,VALID,19.1758,VALID,74,VALID,1.06195,
2007-11-09, 03:31:00,VALID,914.765,VALID,0,VALID,100,VALID,-0.0509425,VALID,19.1825,VALID,78,VALID,0.788318,
2007-11-09, 03:32:00,VALID,914.764,VALID,0,VALID,100,VALID,0,VALID,19.1985,VALID,37,VALID,0.332589,
2007-11-09, 03:33:00,VALID,914.77,VALID,0,VALID,100,VALID,0,VALID,19.195,VALID,43,VALID,0.686773,
2007-11-09, 03:34:00,VALID,914.766,VALID,0,VALID,100,VALID,-0.0679233,VALID,19.1982,VALID,48,VALID,0.476918,
2007-11-09, 03:35:00,VALID,914.779,VALID,0,VALID,100,VALID,-0.0339617,VALID,19.2082,VALID,69,VALID,1.19121,
2007-11-09, 03:36:00,VALID,914.766,VALID,0,VALID,100,VALID,-0.0169808,VALID,19.2214,VALID,99,VALID,0.750178,
2007-11-09, 03:37:00,VALID,914.758,VALID,0,VALID,100,VALID,0,VALID,19.2015,VALID,80,VALID,1.14824,
2007-11-09, 03:38:00,VALID,914.771,VALID,0,VALID,100,VALID,0.0169808,VALID,19.2177,VALID,61,VALID,0.403832,
2007-11-09, 03:39:00,VALID,914.77,VALID,0,VALID,100,VALID,-0.0339617,VALID,19.2374,VALID,65,VALID,0,
2007-11-09, 03:40:00,VALID,914.755,VALID,0,VALID,100,VALID,-0.0169808,VALID,19.2571,VALID,74,VALID,0.595274,
2007-11-09, 03:41:00,VALID,914.753,VALID,0,VALID,100,VALID,0,VALID,19.2536,VALID,68,VALID,0.240327,
2007-11-09, 03:42:00,VALID,914.768,VALID,0,VALID,100,VALID,-0.0339617,VALID,19.2471,VALID,66,VALID,0.56064,
2007-11-09, 03:43:00,VALID,914.76,VALID,0,VALID,100,VALID,0,VALID,19.2439,VALID,34,VALID,0.26399,